Find Local Weather

World > North America > United States > Indiana

Michigan City, Indiana Regional Weather

Lat: 41.71N, Lon: 86.88W
Wx Zone: INZ003
Warning FLW WEATHER ALERT - (More Info. Click Here) Warning
Feedback
Expires:201807201700;;775750
ASUS43 KIND 201609
RWRIN 

WEATHER ROUNDUP FOR INDIANA
NATIONAL WEATHER SERVICE INDIANAPOLIS IN
1200 PM EDT FRI JUL 20 2018

NOTE: "FAIR" INDICATES FEW OR NO CLOUDS BELOW 12,000 FEET WITH NO
SIGNIFICANT WEATHER AND/OR OBSTRUCTIONS TO VISIBILITY.

* - STATION DOES NOT REPORT WEATHER SUCH AS PRECIPITATION OR FOG.

+ - STATION NOT QUALITY CONTROLLED BY THE NATIONAL WEATHER SERVICE.
    USE DATA WITH CAUTION...ESPECIALLY DEWPOINT AND RELATIVE
    HUMIDITY OBSERVATIONS.


INZ001>003-010>013-019-020-201700-
NORTHWEST INDIANA
  
CITY           SKY/WX    TMP DP  RH WIND       PRES   REMARKS
GARY /AIRPORT/ PTSUNNY   81  63  54 SW12G23   29.67F                  
KNOX *+          N/A     82  64  54 S13       29.70F                  
LA PORTE +     FAIR      82  65  57 S13G21    29.71S                  
MICHIGAN CITY+ FAIR      81  63  54 S16       29.70S                  
MONTICELLO +   FAIR      84  68  58 S13G20    29.72F                  
RENSSELAER +   CLOUDY    81  59  47 SW18G26   29.70S                  
VALPARAISO     FAIR      84  63  49 S16       29.69F                  

$$


SKY/WX - Weather  TMP - Temperature  DP - Dewpoint  RH - Relative Humidity
WIND - Wind Direction/Speed PRES - Barometric Pressure